Location: Unspecified
(52.1971°N, 0.0000°E)
Time: 13:56:15
(UTC+00:00)

YUBILEINY - Pass Details

Date: 21 December 2019
Orbit: 1478 x 1509 km, 82.5° (Epoch: 29 January)

Event Time Altitude Azimuth Distance (km) Brightness Sun altitude
Rises 06:14:42 0° 348° (NNW) 4,613 ? -15.8°
Reaches altitude 10° 06:17:44 10° 353° (N) 3,630 ? -15.4°
Maximum altitude 06:26:13 53° 69° (ENE) 1,782 ? -14.2°
Drops below altitude 10° 06:34:40 10° 145° (SE) 3,625 ? -13.0°
Sets 06:37:40 0° 150° (SSE) 4,606 ? -12.5°
